OBJECT Y, 51846

Orbit data source: Space-Track

You're viewing an Uncataloged Satellite

Recently launched and/or uncataloged satellites may have evolving metadata. Metadata may include but not limited to: Owner, Maufacturer, Bus, Motor, and Mission.

OBJECT Y, 51846 is a satellite owned by Changguang WJ (CN) in SSO that was launched on Sun, 27 Feb 2022 UTC via a CHANG ZHENG 8 launch vehicle from the Wenchang Satellite Launch Center (WSC). Unknown objects in Earth's orbit typically refer to objects detected orbiting the Earth but have not yet been identified or cataloged. These objects could be anything from previously untracked satellites, spent rocket stages, debris from satellite collisions, or even natural meteoroids temporarily captured by Earth's gravity.

Loading next visibility...
Identifier
51846, 2022-019Y
Orbit
SSO
Country
Flag of CNCN / PRC
Related business
Manufacturer
Changguang WJ
Mission
Operational Commercial Imaging
Bus & Motor
JL-1, Unknown motor
Mass
43 kg wet, 43 kg dry
Launch date (UTC)
2022-02-27 (4 years ago)
Launch vehicle
CHANG ZHENG 8
Launch site
Wenchang Satellite Launch Center (WSC)
Object type
Unknown
Shape & HBR
Box + 2 Pan, 0.8 m
Radar Cross Section
2.000 m², Medium (>0.1 m² and < 1m²)

Expand to show TLE details & history
Last TLE update: 5 hours ago

TLE from 5 hours ago
0 OBJECT Y
1 51846U 22019Y   26095.53307356  .00156395  00000-0  11597-2 0  9996
2 51846  97.3651 187.1209 0001556 120.0937 240.0481 15.72415615228440
Epoch: 2026-04-05T12:47Z
TLE epoch observation values (Epoch: 2026-04-05T12:47:37.555Z)
Latitude
-0.00002°
Longitude
161.37729°
Altitude
355.681 km
Speed
7.695 km/s
True Right ascension
12h 28m 29s
True Declination
0° 00' 00"
Sunlit
Object was in full shadow at epoch
Visualization orbit readout
Latitude
Unknown
Longitude
Unknown
Altitude
Unknown
Speed
Unknown
Apparent Right ascension
Unknown
Apparent Declination
Unknown
Sunlit
N/A
Visualization observer readout
Local Sidereal Time
23:16:54
Azimuth
Unknown
Elevation
Unknown
Doppler factor
Unknown
Orbital elements
Apogee altitude
349.937 km
Perigee altitude
347.843 km
Semi-major axis
6,727.027 km
Eccentricity
0.00016
Inclination
97.3651°
RAAN
187.1209°
Arg. of periapsis
120.0937°
True anomaly
240.03265°
Mean anomaly
240.0481°
Eccentric anomaly
240.04038°
Mean motion
3.93377 °/min
Orbital period
91.52 mins
BSTAR
0.0011597
Loading maneuver chart data...
Computing Atmospheric mass density...
Loading historical data...
Loading historical data...
Loading historical data...
Loading historical data...
Loading historical data...
Loading historical data...
Loading historical data...

Documentation

Showing up to 5 results
|